Location: Amarillo Post Office Jordan Station
(35.1907°N, 101.9342°W)
Time: 13:47:09
(UTC+00:00)

Cosmos 1939 Rocket - Pass Details

Date: 24 January 2021
Orbit: 531 x 585 km, 97.4° (Epoch: 03 March)

Event Time Altitude Azimuth Distance (km) Brightness Sun altitude
Rises 13:10:33 0° 19° (NNE) 2,705 6.4 -8.8°
Reaches altitude 10° 13:12:46 10° 26° (NNE) 1,802 5.6 -8.3°
Maximum altitude 13:16:29 43° 99° (E) 756 4.2 -7.6°
Drops below altitude 10° 13:20:09 10° 172° (S) 1,774 5.8 -6.9°
Sets 13:22:18 0° 179° (S) 2,658 6.6 -6.5°
